[[{"header":{"parameterUnit":"m.s-1","parameterCategory":1,"la1":30.2991,"la2":30.254,"lo1":-89.0895,"lo2":-89.0444,"dy":0.0017,"dx":0.0017,"nx":28,"ny":28,"refTime":"2025-02-24T09:00:00:Z","depth":0,"parameterNumber":2,"parameterNumberName":"U-component_of_WINDS"},"data":[0,0,0,0,0,0,0,0,0,0,0,0,0,0,0,0,0,0,0,0,0,0,0,0,0,0,0,0,0,0,0,0,0,0,0,0,0,0,0,0,0,0,0,0,0,0,0,0,0,0,0,0,0,0,0,0,0,0,2.2485,2.2486,0,2.2549,2.2549,2.255,2.2527,2.2526,2.2524,2.2523,2.2592,2.2595,2.2598,0,0,0,0,0,0,0,0,0,0,0,0,0,2.2349,2.2352,2.2485,2.2486,2.2487,2.2549,2.255,2.255,2.2528,2.2526,2.2524,2.2522,2.259,2.2594,2.2598,0,0,0,0,0,0,0,0,0,0,0,0,0,2.241,2.2353,2.2485,2.2483,2.2483,2.2548,2.255,2.2551,2.2528,2.2526,2.2524,2.2522,2.2589,2.2594,2.2599,2.2671,0,0,2.2613,2.2615,0,0,0,0,0,0,0,0,2.2407,2.2415,2.2482,2.2483,2.2484,2.2528,2.2527,2.2591,2.2528,2.2511,2.2523,2.2521,2.2572,2.2578,2.2595,2.2674,2.2677,2.2613,2.2616,2.2618,2.262,0,0,0,0,0,0,0,2.2402,2.2412,2.251,2.2483,2.2484,2.248,2.2486,2.2539,2.2553,2.2512,2.2511,2.2519,2.2572,2.2591,2.2596,2.2678,2.2613,2.2617,2.262,2.2622,2.2822,2.2825,0,0,0,0,0,0,2.2397,2.2409,2.2508,2.2512,2.2439,2.2484,2.2491,2.2516,2.2552,2.2556,2.252,2.2517,2.2583,2.2591,2.2599,2.2688,2.2618,2.2623,2.2625,2.282,2.2823,2.2826,0,0,0,0,0,0,2.2394,2.2406,2.2506,2.246,2.2473,2.2489,2.2517,2.2518,2.2536,2.2558,2.2561,2.2536,2.2582,2.2592,2.2653,2.2689,2.2625,2.2629,2.2817,2.2821,2.2824,2.2865,0,0,0,0,0,0,2.2391,2.2405,2.2432,2.2461,2.2475,2.2558,2.2519,2.2521,2.2544,2.2541,2.2574,2.2577,2.2581,2.2647,2.2658,2.2695,2.2633,2.2814,2.2819,2.2823,2.286,2.2869,2.2877,0,0,0,0,0,2.2386,2.2441,2.2433,2.2445,2.2508,2.256,2.2568,2.2571,2.2547,2.2575,2.2589,2.2576,2.2684,2.2653,2.2666,2.2705,2.2812,2.2817,2.2823,2.2856,2.2867,2.2877,0,0,0,0,0,0,2.2416,2.2445,2.2436,2.2502,2.2529,2.2556,2.2591,2.2582,2.2617,2.2612,2.2615,2.2623,2.2686,2.2701,2.2667,2.2778,2.2744,2.2753,2.2765,2.2776,2.2784,2.278,2.2637,0,0,0,0,0,2.243,2.2469,2.2492,2.2548,2.2562,2.2574,2.2597,2.2597,2.2625,2.2636,2.2655,2.2684,2.2725,2.2751,2.2789,2.2862,2.287,2.2895,2.2904,2.2911,2.2918,2.296,2.2972,2.2844,2.2844,2.2844,0,0,2.246,2.2481,2.2505,2.2555,2.2575,2.2617,2.2584,2.2629,2.266,2.2643,2.2702,2.2718,2.275,2.2818,2.2849,2.2833,2.2955,2.2918,2.2923,2.2927,2.2967,2.2979,2.299,2.2848,2.2847,2.2846,0,0,2.2536,2.2555,2.2604,2.2626,2.2657,2.2666,2.2678,2.2707,2.2716,2.2775,2.2764,2.2803,2.2871,2.2896,2.2917,2.3005,2.2995,2.3018,2.3062,2.3103,2.3113,2.3122,2.3155,2.3167,2.3025,2.3025,2.3025,0,2.257,2.263,2.2631,2.2677,2.2701,2.2687,2.2738,2.276,2.2803,2.282,2.2801,2.2889,2.291,2.2984,2.3006,2.3023,2.3039,2.3014,2.3111,2.312,2.3129,2.316,2.3172,2.3028,2.3027,2.3027,2.3027,0,2.2671,2.2714,2.275,2.2792,2.2819,2.2868,2.2877,2.2905,2.2903,2.2914,2.2976,2.3001,2.3045,2.3063,2.3061,2.3138,2.3127,2.311,2.3076,2.3144,2.3173,2.3185,2.3031,2.3031,2.303,2.3029,0,0,2.2767,2.2809,2.2823,2.2842,2.2877,2.2911,2.296,2.3003,2.3027,2.3058,2.3101,2.3161,2.3145,2.317,2.3171,2.3207,2.3277,2.3185,2.3186,2.3203,2.3366,2.3379,2.3393,2.3271,2.3273,2.3275,2.3363,0,2.2847,2.2932,2.2935,2.3013,2.3054,2.3043,2.3086,2.3113,2.3125,2.3163,2.3176,2.3219,2.3195,2.321,2.3245,2.3261,2.331,2.3255,2.3312,2.3314,2.3305,2.3408,2.3422,2.3505,2.3375,2.3377,2.3378,0,2.2951,2.2985,2.3067,2.3098,2.3115,2.3154,2.3194,2.3229,2.3261,2.3268,2.3296,2.3292,2.3345,2.331,2.3383,2.3346,2.3369,2.3381,2.3385,2.3391,2.3351,2.3418,2.3531,2.3544,2.3396,2.3395,2.3394,0,2.3015,2.3081,2.3139,2.3156,2.3193,2.3221,2.3238,2.3267,2.3293,2.3329,2.3346,2.3388,2.3411,2.3445,2.3454,2.3427,2.3528,2.3493,2.3536,2.3536,2.3558,2.3557,2.3678,2.3572,2.3572,2.3572,2.3572,0,2.3104,2.3155,2.3168,2.3204,2.3262,2.3266,2.3324,2.3339,2.3366,2.3406,2.3399,2.3437,2.3446,2.3487,2.3494,2.3555,2.3566,2.3574,2.3575,2.3575,2.3574,2.3591,2.3586,2.3575,2.3574,2.3574,2.3573,0,2.3185,2.3195,2.3258,2.3289,2.3298,2.3339,2.3366,2.3402,2.3413,2.3464,2.3477,2.3496,2.3543,2.3555,2.3612,2.3617,2.369,2.3686,2.3679,2.3679,2.3723,2.3719,2.3859,2.3879,2.376,2.3761,2.3762,0,2.3241,2.3281,2.3315,2.3341,2.3359,2.3401,2.3428,2.3434,2.3463,2.3503,2.3534,2.3581,2.3619,2.3696,2.3716,2.376,2.3757,2.3803,2.3764,2.3763,2.376,2.3758,2.3763,2.3811,2.3812,2.3813,2.3814,0,2.3341,2.3345,2.3383,2.3424,2.3456,2.3488,2.352,2.3542,2.3553,2.3585,2.3634,2.3663,2.3722,2.3769,2.3814,2.3833,2.3827,2.3826,2.3839,2.384,2.3835,2.384,2.3701,2.3823,2.3822,2.3822,2.3821,2.3821,2.3413,2.3448,2.3478,2.3522,2.3546,2.3576,2.3611,2.3627,2.3667,2.3715,2.3717,2.377,2.3803,2.3862,2.3884,2.3927,2.3914,2.3932,2.3936,2.3941,2.3946,2.3827,2.3935,2.3935,2.3935,2.3935,2.3935,0,2.3514,2.3533,2.3573,2.3617,2.3652,2.3641,2.3676,2.3706,2.3753,2.3783,2.3821,2.3878,2.3924,2.3948,2.3994,2.4024,2.4023,2.4037,2.4035,2.404,2.3954,2.3939,2.4037,2.4037,2.4037,2.4037,2.4037,2.4037,2.3571,2.363,2.3638,2.371,2.3729,2.378,2.3801,2.383,2.3854,2.3918,2.3956,2.3971,2.4,2.4049,2.4092,2.4098,2.4116,2.4132,2.4136,2.4056,2.4046,2.4036,2.4022,2.4135,2.4135,2.4218,2.4219,2.422]},{"header":{"parameterUnit":"m.s-1","parameterCategory":1,"la1":30.2991,"la2":30.254,"lo1":-89.0895,"lo2":-89.0444,"dy":0.0017,"dx":0.0017,"nx":28,"ny":28,"refTime":"2025-02-24T09:00:00:Z","depth":0,"parameterNumber":3,"parameterNumberName":"V-component_of_WINDS"},"data":[0,0,0,0,0,0,0,0,0,0,0,0,0,0,0,0,0,0,0,0,0,0,0,0,0,0,0,0,0,0,0,0,0,0,0,0,0,0,0,0,0,0,0,0,0,0,0,0,0,0,0,0,0,0,0,0,0,0,-1.4028,-1.4028,0,-1.4038,-1.4038,-1.4038,-1.4018,-1.4017,-1.4016,-1.4016,-1.4026,-1.4027,-1.4028,0,0,0,0,0,0,0,0,0,0,0,0,0,-1.399,-1.3991,-1.4028,-1.4028,-1.4028,-1.4038,-1.4038,-1.4038,-1.4018,-1.4017,-1.4016,-1.4016,-1.4026,-1.4027,-1.4028,0,0,0,0,0,0,0,0,0,0,0,0,0,-1.4004,-1.3991,-1.4028,-1.4019,-1.4018,-1.4038,-1.4038,-1.4039,-1.4018,-1.4017,-1.4016,-1.4015,-1.4025,-1.4027,-1.4028,-1.4057,0,0,-1.4032,-1.4033,0,0,0,0,0,0,0,0,-1.4003,-1.4005,-1.402,-1.402,-1.4019,-1.4026,-1.4029,-1.4045,-1.4018,-1.4018,-1.4016,-1.4015,-1.4027,-1.4028,-1.4032,-1.4057,-1.4058,-1.4032,-1.4033,-1.4034,-1.4034,0,0,0,0,0,0,0,-1.4002,-1.4005,-1.4032,-1.402,-1.402,-1.4015,-1.4015,-1.4032,-1.4028,-1.4018,-1.4017,-1.4018,-1.4026,-1.4031,-1.4032,-1.4058,-1.4032,-1.4033,-1.4034,-1.4035,-1.4109,-1.411,0,0,0,0,0,0,-1.4002,-1.4004,-1.4031,-1.4032,-1.4008,-1.4016,-1.4017,-1.4024,-1.4028,-1.4027,-1.4019,-1.4017,-1.4029,-1.4031,-1.4032,-1.4068,-1.4034,-1.4035,-1.4036,-1.4108,-1.4109,-1.411,0,0,0,0,0,0,-1.4002,-1.4005,-1.4031,-1.4018,-1.4021,-1.4018,-1.4026,-1.4025,-1.403,-1.4028,-1.4028,-1.4025,-1.4028,-1.4031,-1.4051,-1.4068,-1.4036,-1.4037,-1.4106,-1.4108,-1.411,-1.4137,0,0,0,0,0,0,-1.4001,-1.4005,-1.4016,-1.4018,-1.4021,-1.405,-1.4027,-1.4026,-1.4032,-1.403,-1.4033,-1.4033,-1.4028,-1.4049,-1.4053,-1.4069,-1.4038,-1.4105,-1.4107,-1.4109,-1.4135,-1.414,-1.4144,0,0,0,0,0,-1.3999,-1.4022,-1.4016,-1.402,-1.4035,-1.4051,-1.4053,-1.4046,-1.4034,-1.4045,-1.4044,-1.4033,-1.4065,-1.4052,-1.4055,-1.4072,-1.4104,-1.4106,-1.4109,-1.4133,-1.4139,-1.4144,0,0,0,0,0,0,-1.4021,-1.4023,-1.4016,-1.404,-1.4046,-1.4047,-1.4061,-1.4052,-1.4061,-1.4059,-1.405,-1.4051,-1.4074,-1.4075,-1.406,-1.4101,-1.4082,-1.4086,-1.4099,-1.4105,-1.4109,-1.4109,-1.4039,0,0,0,0,0,-1.4029,-1.4042,-1.4042,-1.4064,-1.4067,-1.4064,-1.407,-1.4065,-1.407,-1.4072,-1.4073,-1.4078,-1.4089,-1.4097,-1.4107,-1.4135,-1.4136,-1.4148,-1.4153,-1.4156,-1.416,-1.4176,-1.4182,-1.4119,-1.4119,-1.4119,0,0,-1.4045,-1.4048,-1.4056,-1.4069,-1.4072,-1.4086,-1.4066,-1.4081,-1.4091,-1.4074,-1.4094,-1.4095,-1.41,-1.4125,-1.4136,-1.4127,-1.4177,-1.416,-1.4163,-1.4164,-1.4179,-1.4185,-1.419,-1.412,-1.412,-1.412,0,0,-1.4082,-1.4085,-1.4104,-1.4108,-1.4114,-1.4112,-1.4116,-1.4119,-1.4119,-1.4139,-1.4128,-1.414,-1.4159,-1.4164,-1.4169,-1.4209,-1.4199,-1.4212,-1.4236,-1.4252,-1.4257,-1.4261,-1.4277,-1.4282,-1.4215,-1.4216,-1.4216,0,-1.4101,-1.4122,-1.4115,-1.4131,-1.4138,-1.4123,-1.4143,-1.4147,-1.4156,-1.4161,-1.415,-1.4176,-1.4178,-1.4205,-1.4215,-1.4218,-1.4224,-1.4212,-1.4257,-1.4261,-1.4265,-1.428,-1.4286,-1.4217,-1.4217,-1.4217,-1.4217,0,-1.4146,-1.4161,-1.4175,-1.4185,-1.4193,-1.4211,-1.4207,-1.4215,-1.421,-1.4209,-1.423,-1.4233,-1.4244,-1.4249,-1.4243,-1.4275,-1.427,-1.4258,-1.424,-1.4273,-1.4287,-1.4292,-1.422,-1.4219,-1.4218,-1.4218,0,0,-1.4197,-1.4203,-1.4209,-1.4214,-1.422,-1.4231,-1.4248,-1.426,-1.4268,-1.4275,-1.429,-1.4308,-1.4297,-1.4303,-1.4298,-1.4311,-1.4345,-1.4298,-1.4298,-1.4308,-1.4382,-1.4391,-1.4398,-1.4338,-1.4339,-1.434,-1.4382,0,-1.4235,-1.4266,-1.426,-1.429,-1.4304,-1.4292,-1.4307,-1.4313,-1.4312,-1.4324,-1.4323,-1.4337,-1.4321,-1.4325,-1.4338,-1.4338,-1.4359,-1.4334,-1.4353,-1.4354,-1.4353,-1.4405,-1.4415,-1.4454,-1.4387,-1.4388,-1.4388,0,-1.4283,-1.4292,-1.4324,-1.4329,-1.4335,-1.4349,-1.436,-1.4371,-1.4377,-1.4376,-1.4383,-1.4375,-1.4394,-1.4374,-1.44,-1.4383,-1.439,-1.4391,-1.4393,-1.4395,-1.4374,-1.441,-1.4466,-1.4473,-1.4396,-1.4396,-1.4395,0,-1.4319,-1.4339,-1.4361,-1.4366,-1.4372,-1.4382,-1.4385,-1.439,-1.4398,-1.4407,-1.4413,-1.4424,-1.443,-1.4439,-1.4435,-1.4421,-1.4462,-1.4442,-1.4462,-1.4462,-1.4472,-1.4472,-1.4532,-1.4474,-1.4474,-1.4474,-1.4474,0,-1.4362,-1.4383,-1.4378,-1.4392,-1.4414,-1.4408,-1.4431,-1.4432,-1.4437,-1.4451,-1.444,-1.4453,-1.4446,-1.446,-1.4456,-1.4479,-1.4481,-1.4481,-1.4481,-1.4483,-1.4483,-1.4489,-1.4486,-1.4476,-1.4475,-1.4475,-1.4475,0,-1.4407,-1.4404,-1.4428,-1.4432,-1.4433,-1.445,-1.4453,-1.4467,-1.4465,-1.4484,-1.4487,-1.4486,-1.4501,-1.4497,-1.4513,-1.4511,-1.454,-1.4535,-1.4538,-1.4538,-1.4559,-1.4557,-1.4625,-1.4635,-1.457,-1.4571,-1.4571,0,-1.4435,-1.4451,-1.4457,-1.4466,-1.447,-1.4484,-1.4492,-1.4486,-1.4495,-1.4504,-1.4517,-1.4531,-1.4542,-1.4566,-1.4567,-1.4579,-1.4575,-1.4598,-1.4577,-1.458,-1.4578,-1.4577,-1.4579,-1.4603,-1.4604,-1.4604,-1.4605,0,-1.4487,-1.4485,-1.4497,-1.451,-1.452,-1.4529,-1.4537,-1.4545,-1.454,-1.4551,-1.4567,-1.4575,-1.4592,-1.4607,-1.4619,-1.4622,-1.4613,-1.4611,-1.4617,-1.462,-1.4622,-1.4623,-1.4551,-1.461,-1.4609,-1.4609,-1.4609,-1.4609,-1.4525,-1.4539,-1.4546,-1.456,-1.4566,-1.4574,-1.4587,-1.4588,-1.4601,-1.4615,-1.4611,-1.4629,-1.4635,-1.465,-1.4655,-1.4669,-1.4661,-1.4668,-1.4671,-1.4673,-1.4677,-1.4619,-1.4671,-1.4671,-1.4671,-1.4671,-1.4671,0,-1.4577,-1.4581,-1.4595,-1.4607,-1.4619,-1.4609,-1.4618,-1.4629,-1.4645,-1.4652,-1.4663,-1.4682,-1.4696,-1.4698,-1.4712,-1.4723,-1.4719,-1.4727,-1.4727,-1.4728,-1.4683,-1.4677,-1.473,-1.473,-1.473,-1.473,-1.473,-1.473,-1.4606,-1.4629,-1.4629,-1.4655,-1.4659,-1.4677,-1.4683,-1.4691,-1.4697,-1.4718,-1.473,-1.4731,-1.4737,-1.4751,-1.4764,-1.4764,-1.477,-1.478,-1.4778,-1.4736,-1.4731,-1.4725,-1.472,-1.4781,-1.4781,-1.4822,-1.4823,-1.4823]}]]